TimePDT,TemperatureF,Dew PointF,Humidity,Sea Level PressureIn,VisibilityMPH,Wind Direction,Wind SpeedMPH,Gust SpeedMPH,PrecipitationIn,Events,Conditions,WindDirDegrees,DateUTC
12:15 AM,53.6,51.8,94,30.04,10.0,SSW,4.6,-,N/A,,Unknown,210,2012-11-02 07:15:00
12:55 AM,53.6,51.8,94,30.04,10.0,South,5.8,-,N/A,,Unknown,180,2012-11-02 07:55:00
1:15 AM,53.6,51.8,94,30.05,8.0,SSW,3.5,-,N/A,,Unknown,210,2012-11-02 08:15:00
1:35 AM,53.6,53.6,100,30.04,10.0,SSW,3.5,-,N/A,,Unknown,200,2012-11-02 08:35:00
1:55 AM,53.6,51.8,94,30.05,10.0,SSW,3.5,-,N/A,,Unknown,200,2012-11-02 08:55:00
2:15 AM,53.6,51.8,94,30.04,10.0,South,3.5,-,N/A,,Unknown,190,2012-11-02 09:15:00
2:35 AM,51.8,50.0,94,30.04,10.0,Calm,Calm,-,N/A,,Unknown,0,2012-11-02 09:35:00
2:55 AM,51.8,50.0,94,30.04,10.0,Calm,Calm,-,N/A,,Unknown,0,2012-11-02 09:55:00
3:15 AM,50.0,50.0,100,30.05,10.0,SSW,3.5,-,N/A,,Unknown,200,2012-11-02 10:15:00
3:35 AM,51.8,51.8,100,30.05,10.0,SSW,3.5,-,N/A,,Unknown,200,2012-11-02 10:35:00
3:55 AM,51.8,51.8,100,30.05,10.0,Calm,Calm,-,N/A,,Unknown,0,2012-11-02 10:55:00
4:35 AM,53.6,51.8,94,30.05,10.0,Calm,Calm,-,N/A,,Unknown,0,2012-11-02 11:35:00
4:55 AM,51.8,50.0,94,30.04,10.0,South,3.5,-,N/A,,Unknown,180,2012-11-02 11:55:00
5:15 AM,51.8,50.0,94,30.04,10.0,South,4.6,-,N/A,,Unknown,180,2012-11-02 12:15:00
5:35 AM,51.8,50.0,94,30.04,10.0,Calm,Calm,-,N/A,,Unknown,0,2012-11-02 12:35:00
5:55 AM,50.0,50.0,100,30.03,10.0,Calm,Calm,-,N/A,,Unknown,0,2012-11-02 12:55:00
6:15 AM,50.0,50.0,100,30.03,10.0,Calm,Calm,-,N/A,,Unknown,0,2012-11-02 13:15:00
6:55 AM,50.0,50.0,100,30.03,10.0,West,3.5,-,N/A,,Unknown,280,2012-11-02 13:55:00
7:35 AM,50.0,48.2,94,30.03,10.0,Calm,Calm,-,N/A,,Unknown,0,2012-11-02 14:35:00
7:55 AM,50.0,50.0,100,30.03,10.0,Calm,Calm,-,N/A,,Unknown,0,2012-11-02 14:55:00
8:15 AM,50.0,48.2,94,30.03,8.0,Calm,Calm,-,N/A,,Unknown,0,2012-11-02 15:15:00
8:35 AM,48.2,48.2,100,30.03,4.0,Calm,Calm,-,N/A,,Mist,0,2012-11-02 15:35:00
8:55 AM,48.2,48.2,100,30.03,6.0,Calm,Calm,-,N/A,,Mist,0,2012-11-02 15:55:00
9:15 AM,50.0,50.0,100,30.04,10.0,Calm,Calm,-,N/A,,Unknown,0,2012-11-02 16:15:00
9:35 AM,51.8,50.0,94,30.04,10.0,Calm,Calm,-,N/A,,Unknown,0,2012-11-02 16:35:00
9:55 AM,51.8,50.0,94,30.04,10.0,WSW,3.5,-,N/A,,Unknown,250,2012-11-02 16:55:00
10:15 AM,53.6,51.8,94,30.04,10.0,South,3.5,-,N/A,,Unknown,190,2012-11-02 17:15:00
10:35 AM,53.6,50.0,88,30.04,10.0,South,4.6,-,N/A,,Unknown,190,2012-11-02 17:35:00
10:55 AM,53.6,50.0,88,30.03,10.0,SSE,5.8,-,N/A,,Unknown,150,2012-11-02 17:55:00
11:15 AM,55.4,50.0,82,30.03,10.0,South,5.8,-,N/A,,Unknown,170,2012-11-02 18:15:00
11:35 AM,55.4,50.0,82,30.03,10.0,South,4.6,-,N/A,,Unknown,170,2012-11-02 18:35:00
11:55 AM,57.2,50.0,77,30.02,10.0,SSE,4.6,-,N/A,,Unknown,150,2012-11-02 18:55:00
12:15 PM,57.2,50.0,77,30.02,10.0,SW,3.5,-,N/A,,Unknown,220,2012-11-02 19:15:00
12:35 PM,57.2,50.0,77,30.03,10.0,South,4.6,-,N/A,,Unknown,190,2012-11-02 19:35:00
12:55 PM,57.2,50.0,77,30.01,10.0,Calm,Calm,-,N/A,,Unknown,0,2012-11-02 19:55:00
1:15 PM,57.2,50.0,77,30.01,10.0,SE,4.6,-,N/A,,Unknown,140,2012-11-02 20:15:00
1:55 PM,57.2,51.8,82,30.00,10.0,SW,3.5,-,N/A,,Unknown,220,2012-11-02 20:55:00
2:15 PM,57.2,51.8,82,30.00,8.0,Calm,Calm,-,N/A,Rain,Light Rain,0,2012-11-02 21:15:00
2:35 PM,55.4,53.6,94,30.00,7.0,Calm,Calm,-,N/A,Rain,Light Rain,0,2012-11-02 21:35:00
2:55 PM,55.4,53.6,94,30.00,5.0,Calm,Calm,-,N/A,Rain,Light Rain,0,2012-11-02 21:55:00
3:15 PM,55.4,53.6,94,30.00,5.0,SSE,3.5,-,0.01,Rain,Light Rain,160,2012-11-02 22:15:00
3:35 PM,55.4,53.6,94,29.99,5.0,Calm,Calm,-,0.01,Rain,Light Rain,0,2012-11-02 22:35:00
3:55 PM,55.4,53.6,94,29.99,4.0,SSE,3.5,-,0.01,Rain,Light Rain,160,2012-11-02 22:55:00
4:15 PM,55.4,53.6,94,30.00,4.0,South,4.6,-,N/A,Rain,Light Rain,180,2012-11-02 23:15:00
4:35 PM,55.4,53.6,94,30.01,3.0,Calm,Calm,-,0.01,Rain,Light Rain,0,2012-11-02 23:35:00
4:55 PM,55.4,53.6,94,30.00,5.0,SE,4.6,-,0.01,,Mist,130,2012-11-02 23:55:00
5:55 PM,55.4,53.6,94,29.98,10.0,SSE,3.5,-,0.01,,Unknown,160,2012-11-03 00:55:00
6:15 PM,55.4,53.6,94,29.99,10.0,Calm,Calm,-,N/A,,Unknown,0,2012-11-03 01:15:00
6:35 PM,53.6,53.6,100,29.99,10.0,SSW,4.6,-,N/A,,Unknown,210,2012-11-03 01:35:00
6:55 PM,53.6,53.6,100,29.98,10.0,Calm,Calm,-,N/A,,Unknown,0,2012-11-03 01:55:00
7:15 PM,53.6,53.6,100,29.99,7.0,NW,3.5,-,N/A,Rain,Light Rain,320,2012-11-03 02:15:00
7:35 PM,53.6,53.6,100,29.99,5.0,Calm,Calm,-,0.01,Rain,Rain,0,2012-11-03 02:35:00
7:55 PM,53.6,53.6,100,29.98,7.0,Calm,Calm,-,0.01,Rain,Light Rain,0,2012-11-03 02:55:00
8:15 PM,53.6,53.6,100,29.99,3.0,Calm,Calm,-,N/A,Rain,Rain,0,2012-11-03 03:15:00
8:35 PM,53.6,53.6,100,29.98,3.0,ENE,3.5,-,N/A,Rain,Light Rain,70,2012-11-03 03:35:00
8:55 PM,53.6,53.6,100,29.98,8.0,Calm,Calm,-,N/A,Rain,Light Rain,0,2012-11-03 03:55:00
9:15 PM,53.6,53.6,100,29.98,10.0,Calm,Calm,-,N/A,Rain,Light Rain,0,2012-11-03 04:15:00
9:35 PM,53.6,51.8,94,29.98,10.0,South,4.6,-,N/A,Rain,Light Rain,170,2012-11-03 04:35:00
10:15 PM,53.6,51.8,94,29.99,10.0,South,6.9,-,N/A,,Unknown,180,2012-11-03 05:15:00
10:35 PM,53.6,51.8,94,29.99,7.0,SSW,6.9,-,N/A,,Unknown,200,2012-11-03 05:35:00
10:55 PM,53.6,51.8,94,29.98,10.0,South,5.8,-,N/A,,Unknown,180,2012-11-03 05:55:00
11:15 PM,53.6,51.8,94,29.98,10.0,South,4.6,-,0.01,,Unknown,190,2012-11-03 06:15:00
11:35 PM,53.6,51.8,94,29.99,10.0,South,5.8,-,0.01,,Unknown,190,2012-11-03 06:35:00
11:55 PM,53.6,51.8,94,29.99,10.0,South,8.1,-,0.01,,Unknown,180,2012-11-03 06:55:00